QPF
0.15 0.16 0.08 0.03 0.02 0.03 0.03 0.04 0.03 0.03 0.02 0.02 0.03 0.02 0.01 0.01 0.01 0.02 0.02 0.01 0.01 0.01 0.02 0.07 0.10 0.10 0.11 0.09 0.07 0.05 0.04 0.04 0.05 0.06 0.07 0.06 0.07 0.07 0.09 0.10 0.12 0.12 0.08 0.06 0.05 0.05 0.07 0.08 0.09
0.16 0.11 0.04 0.02 0.02 0.02 0.02 0.03 0.04 0.06 0.04 0.03 0.03 0.03 0.02 0.01 0.01 0.01 0.01 0.01 0.01 0.01 0.01 0.03 0.07 0.09 0.10 0.11 0.08 0.06 0.05 0.04 0.03 0.05 0.07 0.07 0.07 0.07 0.07 0.07 0.09 0.08 0.07 0.04 0.03 0.03 0.04 0.05 0.06
0.10 0.05 0.03 0.02 0.01 0.01 0.02 0.02 0.04 0.04 0.03 0.04 0.03 0.01 0.01 0.01 0.01 0.02 0.02 0.01 0.01 0.01 0.01 0.03 0.06 0.07 0.08 0.10 0.10 0.08 0.07 0.05 0.03 0.04 0.07 0.07 0.06 0.06 0.06 0.06 0.06 0.06 0.07 0.06 0.04 0.04 0.04 0.04 0.05
0.04 0.03 0.02 0.01 0.01 0.01 0.01 0.02 0.03 0.02 0.01 0.03 0.02 0.01 0.02 0.02 0.02 0.02 0.02 0.01 0.00 0.01 0.02 0.03 0.05 0.05 0.04 0.06 0.07 0.07 0.09 0.07 0.05 0.05 0.06 0.07 0.07 0.06 0.06 0.06 0.06 0.05 0.05 0.05 0.04 0.05 0.06 0.06 0.06
0.02 0.03 0.02 0.02 0.01 0.02 0.02 0.02 0.02 0.01 0.02 0.02 0.01 0.01 0.02 0.01 0.01 0.01 0.01 0.01 0.00 0.01 0.02 0.03 0.04 0.04 0.02 0.04 0.05 0.07 0.10 0.09 0.07 0.06 0.06 0.07 0.07 0.06 0.06 0.07 0.07 0.06 0.05 0.05 0.05 0.04 0.04 0.06 0.06
0.03 0.02 0.02 0.02 0.02 0.02 0.02 0.02 0.02 0.02 0.02 0.02 0.01 0.01 0.03 0.06 0.02 0.01 0.02 0.01 0.01 0.02 0.02 0.02 0.05 0.05 0.04 0.03 0.03 0.05 0.06 0.07 0.07 0.07 0.06 0.06 0.07 0.06 0.06 0.06 0.05 0.03 0.03 0.04 0.04 0.03 0.04 0.05 0.05
0.02 0.02 0.03 0.02 0.02 0.02 0.02 0.02 0.02 0.02 0.02 0.02 0.01 0.02 0.03 0.08 0.04 0.05 0.04 0.02 0.01 0.02 0.02 0.02 0.02 0.04 0.05 0.04 0.03 0.02 0.02 0.03 0.04 0.04 0.03 0.03 0.04 0.05 0.05 0.05 0.05 0.05 0.05 0.04 0.03 0.02 0.03 0.04 0.05
0.01 0.01 0.02 0.02 0.02 0.01 0.02 0.01 0.01 0.03 0.02 0.02 0.01 0.02 0.03 0.04 0.04 0.04 0.04 0.02 0.02 0.02 0.02 0.03 0.03 0.03 0.04 0.03 0.03 0.02 0.02 0.02 0.02 0.02 0.02 0.02 0.02 0.03 0.04 0.05 0.06 0.06 0.05 0.04 0.03 0.03 0.04 0.04 0.05
0.00 0.01 0.01 0.01 0.01 0.01 0.01 0.01 0.02 0.02 0.03 0.02 0.01 0.02 0.03 0.03 0.02 0.03 0.02 0.02 0.02 0.02 0.02 0.02 0.03 0.04 0.04 0.03 0.02 0.02 0.03 0.02 0.02 0.02 0.02 0.01 0.01 0.01 0.02 0.03 0.03 0.04 0.04 0.03 0.03 0.04 0.04 0.04 0.04
0.01 0.01 0.00 0.00 0.00 0.00 0.00 0.01 0.01 0.01 0.03 0.01 0.01 0.03 0.04 0.03 0.02 0.02 0.03 0.03 0.03 0.02 0.01 0.01 0.02 0.03 0.03 0.02 0.03 0.03 0.02 0.01 0.01 0.02 0.02 0.02 0.01 0.01 0.01 0.02 0.02 0.03 0.02 0.02 0.02 0.03 0.03 0.02 0.03
0.02 0.01 0.00 0.00 0.00 0.00 0.00 0.00 0.01 0.01 0.01 0.00 0.01 0.04 0.04 0.02 0.03 0.03 0.02 0.02 0.02 0.01 0.01 0.01 0.01 0.02 0.02 0.03 0.03 0.03 0.02 0.01 0.02 0.02 0.02 0.03 0.02 0.02 0.02 0.02 0.01 0.01 0.01 0.01 0.01 0.02 0.03 0.02 0.02
0.01 0.01 0.00 0.00 0.00 0.00 0.00 0.00 0.01 0.01 0.01 0.00 0.01 0.02 0.03 0.02 0.01 0.01 0.01 0.01 0.03 0.02 0.01 0.01 0.01 0.01 0.02 0.02 0.02 0.02 0.03 0.03 0.03 0.02 0.02 0.03 0.02 0.02 0.03 0.04 0.03 0.02 0.02 0.02 0.02 0.03 0.06 0.05 0.05
0.01 0.01 0.01 0.00 0.00 0.00 0.00 0.01 0.01 0.01 0.01 0.01 0.01 0.01 0.02 0.02 0.02 0.01 0.02 0.02 0.02 0.02 0.02 0.01 0.01 0.01 0.01 0.01 0.01 0.01 0.02 0.02 0.02 0.02 0.02 0.03 0.03 0.03 0.03 0.04 0.03 0.02 0.03 0.04 0.05 0.07 0.11 0.09 0.07
0.00 0.01 0.01 0.01 0.01 0.00 0.01 0.01 0.02 0.01 0.02 0.02 0.01 0.01 0.02 0.02 0.02 0.02 0.02 0.01 0.02 0.02 0.03 0.02 0.02 0.01 0.01 0.01 0.01 0.01 0.02 0.01 0.01 0.02 0.03 0.04 0.04 0.04 0.06 0.07 0.05 0.02 0.01 0.02 0.02 0.04 0.09 0.08 0.04
0.00 0.01 0.01 0.01 0.01 0.01 0.02 0.02 0.02 0.01 0.02 0.02 0.01 0.02 0.03 0.03 0.03 0.03 0.03 0.03 0.03 0.02 0.03 0.04 0.03 0.01 0.02 0.02 0.01 0.01 0.01 0.01 0.01 0.01 0.02 0.03 0.06 0.07 0.07 0.09 0.10 0.06 0.02 0.02 0.02 0.02 0.06 0.07 0.03
0.01 0.01 0.01 0.01 0.01 0.02 0.02 0.02 0.02 0.01 0.02 0.03 0.02 0.02 0.02 0.03 0.03 0.04 0.04 0.04 0.04 0.04 0.04 0.03 0.03 0.02 0.02 0.04 0.03 0.03 0.02 0.01 0.01 0.01 0.01 0.02 0.03 0.05 0.08 0.06 0.07 0.06 0.04 0.03 0.03 0.04 0.06 0.09 0.07
0.01 0.01 0.01 0.02 0.02 0.03 0.04 0.05 0.02 0.03 0.04 0.02 0.02 0.02 0.02 0.03 0.03 0.04 0.04 0.04 0.04 0.03 0.04 0.04 0.04 0.03 0.05 0.10 0.12 0.08 0.06 0.03 0.02 0.01 0.00 0.01 0.01 0.02 0.03 0.03 0.03 0.03 0.03 0.02 0.02 0.04 0.06 0.10 0.10
0.00 0.00 0.00 0.01 0.01 0.03 0.04 0.03 0.03 0.03 0.02 0.02 0.02 0.02 0.03 0.03 0.02 0.02 0.02 0.03 0.04 0.03 0.02 0.03 0.03 0.04 0.04 0.07 0.07 0.06 0.04 0.04 0.03 0.02 0.01 0.01 0.01 0.02 0.03 0.03 0.03 0.03 0.02 0.01 0.01 0.02 0.04 0.09 0.12
0.00 0.00 0.00 0.00 0.01 0.02 0.02 0.02 0.03 0.03 0.02 0.02 0.02 0.02 0.02 0.02 0.02 0.03 0.03 0.03 0.03 0.02 0.02 0.02 0.03 0.04 0.05 0.04 0.04 0.04 0.03 0.03 0.02 0.02 0.02 0.02 0.02 0.02 0.03 0.03 0.03 0.03 0.02 0.01 0.01 0.02 0.02 0.05 0.07
0.00 0.00 0.00 0.00 0.00 0.01 0.01 0.02 0.02 0.02 0.01 0.01 0.01 0.02 0.03 0.02 0.02 0.03 0.04 0.03 0.04 0.03 0.03 0.03 0.03 0.03 0.03 0.02 0.02 0.02 0.02 0.02 0.02 0.02 0.02 0.03 0.02 0.02 0.03 0.03 0.03 0.02 0.02 0.02 0.02 0.02 0.03 0.04 0.05
0.00 0.00 0.00 0.00 0.00 0.01 0.01 0.02 0.01 0.01 0.01 0.01 0.01 0.02 0.03 0.03 0.02 0.03 0.03 0.02 0.03 0.04 0.03 0.03 0.02 0.02 0.02 0.02 0.03 0.02 0.01 0.01 0.02 0.01 0.02 0.02 0.03 0.02 0.02 0.02 0.02 0.01 0.01 0.01 0.02 0.02 0.02 0.04 0.04
0.00 0.00 0.00 0.00 0.00 0.00 0.00 0.01 0.01 0.00 0.01 0.01 0.01 0.01 0.02 0.03 0.03 0.02 0.02 0.02 0.02 0.03 0.04 0.02 0.01 0.01 0.02 0.01 0.02 0.02 0.02 0.01 0.01 0.01 0.02 0.03 0.04 0.04 0.04 0.03 0.02 0.01 0.01 0.01 0.01 0.01 0.01 0.02 0.03
0.00 0.00 0.00 0.00 0.00 0.00 0.00 0.00 0.00 0.00 0.01 0.01 0.01 0.01 0.02 0.02 0.03 0.02 0.01 0.02 0.03 0.03 0.03 0.02 0.01 0.01 0.01 0.01 0.00 0.01 0.02 0.02 0.02 0.02 0.02 0.02 0.02 0.03 0.04 0.04 0.03 0.02 0.02 0.02 0.02 0.01 0.01 0.01 0.02
0.00 0.00 0.01 0.00 0.00 0.00 0.00 0.00 0.01 0.01 0.01 0.01 0.02 0.01 0.01 0.01 0.02 0.02 0.02 0.02 0.02 0.03 0.02 0.01 0.01 0.01 0.01 0.01 0.01 0.01 0.01 0.01 0.01 0.01 0.02 0.02 0.02 0.02 0.03 0.03 0.03 0.03 0.03 0.02 0.02 0.02 0.01 0.01 0.01
0.00 0.01 0.02 0.02 0.01 0.01 0.01 0.01 0.01 0.01 0.01 0.02 0.02 0.02 0.01 0.01 0.02 0.02 0.02 0.02 0.01 0.01 0.01 0.01 0.01 0.01 0.00 0.00 0.00 0.01 0.01 0.00 0.01 0.01 0.01 0.01 0.01 0.02 0.02 0.03 0.02 0.02 0.02 0.02 0.02 0.02 0.01 0.01 0.01
0.00 0.01 0.01 0.02 0.01 0.01 0.01 0.01 0.01 0.02 0.02 0.03 0.02 0.02 0.01 0.01 0.02 0.03 0.03 0.02 0.01 0.01 0.01 0.01 0.01 0.01 0.01 0.00 0.00 0.00 0.00 0.00 0.00 0.01 0.01 0.00 0.00 0.01 0.02 0.03 0.03 0.02 0.01 0.01 0.01 0.02 0.02 0.01 0.02
0.01 0.00 0.00 0.01 0.01 0.01 0.01 0.01 0.02 0.02 0.01 0.01 0.01 0.01 0.01 0.01 0.01 0.01 0.02 0.02 0.01 0.01 0.01 0.01 0.01 0.01 0.01 0.01 0.01 0.00 0.00 0.00 0.00 0.00 0.00 0.00 0.00 0.00 0.01 0.03 0.03 0.02 0.01 0.01 0.01 0.02 0.02 0.02 0.04
0.00 0.00 0.00 0.01 0.01 0.02 0.01 0.01 0.02 0.02 0.01 0.01 0.01 0.01 0.01 0.01 0.01 0.01 0.02 0.02 0.02 0.02 0.02 0.02 0.01 0.01 0.01 0.01 0.01 0.00 0.00 0.00 0.00 0.00 0.00 0.00 0.01 0.00 0.01 0.02 0.03 0.03 0.02 0.02 0.01 0.01 0.01 0.01 0.02
0.01 0.01 0.00 0.00 0.00 0.01 0.02 0.02 0.01 0.01 0.01 0.00 0.01 0.01 0.01 0.01 0.01 0.01 0.01 0.01 0.02 0.02 0.02 0.02 0.02 0.02 0.01 0.01 0.00 0.00 0.00 0.00 0.00 0.00 0.00 0.00 0.00 0.01 0.01 0.01 0.02 0.02 0.02 0.02 0.02 0.01 0.01 0.01 0.02
0.01 0.01 0.01 0.01 0.00 0.00 0.01 0.01 0.00 0.00 0.01 0.00 0.00 0.01 0.01 0.01 0.01 0.01 0.01 0.01 0.02 0.01 0.01 0.01 0.01 0.02 0.01 0.00 0.00 0.00 0.01 0.00 0.00 0.00 0.00 0.00 0.00 0.00 0.00 0.01 0.02 0.02 0.02 0.02 0.02 0.02 0.02 0.01 0.01
MSLP
1009.84 1010.15 1010.59 1011.07 1011.52 1011.86 1012.07 1012.14 1012.10 1012.01 1011.97 1012.01 1012.17 1012.44 1012.76 1013.08 1013.32 1013.43 1013.39 1013.25 1013.05 1012.86 1012.76 1012.77 1012.92 1013.18 1013.48 1013.77 1014.00 1014.13 1014.19 1014.18 1014.15 1014.15 1014.20 1014.30 1014.45 1014.60 1014.74 1014.83 1014.86 1014.84 1014.79 1014.73 1014.68 1014.64 1014.60 1014.55 1014.45
1009.99 1010.33 1010.76 1011.21 1011.61 1011.89 1012.02 1012.02 1011.92 1011.80 1011.73 1011.77 1011.92 1012.19 1012.51 1012.82 1013.06 1013.18 1013.18 1013.08 1012.94 1012.84 1012.81 1012.91 1013.14 1013.44 1013.78 1014.10 1014.35 1014.50 1014.58 1014.60 1014.60 1014.63 1014.70 1014.82 1014.96 1015.10 1015.22 1015.28 1015.29 1015.27 1015.22 1015.19 1015.17 1015.16 1015.14 1015.08 1014.96
1010.25 1010.60 1011.02 1011.41 1011.73 1011.93 1011.98 1011.91 1011.77 1011.63 1011.56 1011.60 1011.76 1012.03 1012.34 1012.65 1012.88 1013.00 1013.01 1012.95 1012.87 1012.83 1012.88 1013.04 1013.32 1013.67 1014.04 1014.37 1014.64 1014.82 1014.92 1014.98 1015.03 1015.10 1015.21 1015.34 1015.49 1015.62 1015.70 1015.74 1015.74 1015.71 1015.68 1015.67 1015.68 1015.69 1015.69 1015.62 1015.48
1010.65 1011.00 1011.37 1011.69 1011.91 1012.01 1011.97 1011.84 1011.67 1011.53 1011.47 1011.54 1011.72 1011.99 1012.30 1012.59 1012.80 1012.91 1012.93 1012.89 1012.85 1012.86 1012.97 1013.18 1013.50 1013.88 1014.26 1014.61 1014.89 1015.09 1015.23 1015.33 1015.43 1015.55 1015.70 1015.86 1016.01 1016.13 1016.21 1016.23 1016.21 1016.19 1016.17 1016.18 1016.21 1016.25 1016.25 1016.17 1016.00
1011.13 1011.46 1011.77 1012.00 1012.12 1012.11 1011.99 1011.81 1011.62 1011.50 1011.47 1011.57 1011.79 1012.08 1012.39 1012.66 1012.85 1012.94 1012.95 1012.92 1012.91 1012.95 1013.10 1013.35 1013.70 1014.09 1014.48 1014.83 1015.12 1015.34 1015.51 1015.66 1015.81 1015.98 1016.16 1016.35 1016.52 1016.64 1016.71 1016.73 1016.71 1016.69 1016.69 1016.71 1016.76 1016.80 1016.80 1016.71 1016.51
1011.62 1011.92 1012.15 1012.28 1012.28 1012.18 1011.99 1011.77 1011.58 1011.48 1011.51 1011.67 1011.93 1012.25 1012.56 1012.83 1013.00 1013.07 1013.08 1013.05 1013.05 1013.12 1013.29 1013.57 1013.93 1014.32 1014.71 1015.06 1015.36 1015.59 1015.79 1015.97 1016.16 1016.36 1016.59 1016.80 1016.99 1017.12 1017.20 1017.22 1017.21 1017.20 1017.20 1017.23 1017.28 1017.32 1017.31 1017.20 1016.98
1012.03 1012.27 1012.42 1012.44 1012.34 1012.14 1011.89 1011.66 1011.49 1011.45 1011.54 1011.77 1012.09 1012.45 1012.79 1013.05 1013.22 1013.29 1013.29 1013.27 1013.28 1013.36 1013.55 1013.84 1014.20 1014.59 1014.98 1015.32 1015.61 1015.85 1016.06 1016.26 1016.48 1016.71 1016.96 1017.19 1017.40 1017.55 1017.64 1017.67 1017.68 1017.67 1017.68 1017.72 1017.76 1017.78 1017.75 1017.62 1017.39
1012.30 1012.47 1012.51 1012.44 1012.24 1011.98 1011.70 1011.46 1011.33 1011.35 1011.52 1011.82 1012.21 1012.62 1013.00 1013.29 1013.47 1013.54 1013.54 1013.53 1013.55 1013.65 1013.84 1014.13 1014.49 1014.88 1015.25 1015.59 1015.87 1016.11 1016.33 1016.54 1016.76 1017.01 1017.26 1017.51 1017.73 1017.89 1018.00 1018.06 1018.08 1018.09 1018.11 1018.14 1018.17 1018.17 1018.12 1017.98 1017.74
1012.41 1012.49 1012.45 1012.29 1012.03 1011.72 1011.43 1011.21 1011.13 1011.21 1011.45 1011.83 1012.29 1012.75 1013.17 1013.49 1013.69 1013.78 1013.80 1013.81 1013.84 1013.95 1014.14 1014.43 1014.78 1015.15 1015.51 1015.84 1016.12 1016.35 1016.56 1016.77 1017.00 1017.24 1017.49 1017.74 1017.97 1018.15 1018.28 1018.36 1018.41 1018.44 1018.47 1018.49 1018.51 1018.49 1018.42 1018.27 1018.04
1012.40 1012.40 1012.29 1012.07 1011.77 1011.44 1011.16 1010.98 1010.95 1011.09 1011.39 1011.82 1012.33 1012.84 1013.29 1013.64 1013.88 1014.00 1014.04 1014.07 1014.12 1014.23 1014.42 1014.69 1015.02 1015.38 1015.73 1016.04 1016.31 1016.55 1016.76 1016.96 1017.17 1017.41 1017.65 1017.90 1018.12 1018.32 1018.47 1018.59 1018.67 1018.72 1018.76 1018.79 1018.80 1018.76 1018.68 1018.53 1018.32
1012.34 1012.29 1012.13 1011.88 1011.58 1011.27 1011.02 1010.88 1010.89 1011.07 1011.41 1011.87 1012.39 1012.92 1013.40 1013.77 1014.03 1014.18 1014.26 1014.30 1014.36 1014.47 1014.65 1014.90 1015.21 1015.54 1015.87 1016.18 1016.45 1016.68 1016.89 1017.09 1017.30 1017.52 1017.75 1017.98 1018.21 1018.42 1018.60 1018.75 1018.87 1018.96 1019.02 1019.06 1019.06 1019.02 1018.94 1018.80 1018.61
1012.32 1012.25 1012.08 1011.85 1011.58 1011.32 1011.12 1011.03 1011.07 1011.27 1011.61 1012.06 1012.56 1013.08 1013.54 1013.92 1014.20 1014.37 1014.47 1014.53 1014.60 1014.70 1014.85 1015.07 1015.35 1015.65 1015.96 1016.25 1016.52 1016.76 1016.98 1017.18 1017.38 1017.59 1017.81 1018.04 1018.27 1018.49 1018.69 1018.88 1019.04 1019.17 1019.27 1019.33 1019.35 1019.31 1019.23 1019.10 1018.94
1012.40 1012.33 1012.20 1012.02 1011.83 1011.65 1011.52 1011.48 1011.56 1011.76 1012.07 1012.47 1012.92 1013.38 1013.81 1014.17 1014.44 1014.63 1014.74 1014.81 1014.87 1014.95 1015.08 1015.25 1015.48 1015.74 1016.02 1016.31 1016.58 1016.83 1017.05 1017.26 1017.47 1017.67 1017.88 1018.10 1018.32 1018.55 1018.78 1019.01 1019.21 1019.39 1019.53 1019.63 1019.67 1019.65 1019.57 1019.46 1019.32
1012.58 1012.56 1012.50 1012.42 1012.34 1012.28 1012.25 1012.28 1012.39 1012.57 1012.84 1013.17 1013.54 1013.92 1014.28 1014.60 1014.85 1015.02 1015.14 1015.20 1015.25 1015.30 1015.38 1015.50 1015.67 1015.89 1016.13 1016.40 1016.66 1016.92 1017.16 1017.38 1017.59 1017.78 1017.98 1018.18 1018.40 1018.64 1018.88 1019.14 1019.39 1019.62 1019.81 1019.95 1020.03 1020.04 1019.98 1019.88 1019.76
1012.82 1012.87 1012.92 1012.97 1013.04 1013.12 1013.22 1013.35 1013.51 1013.69 1013.92 1014.17 1014.44 1014.73 1015.01 1015.26 1015.47 1015.63 1015.73 1015.78 1015.80 1015.82 1015.84 1015.90 1016.00 1016.16 1016.36 1016.59 1016.84 1017.09 1017.34 1017.56 1017.77 1017.95 1018.13 1018.32 1018.52 1018.75 1019.00 1019.28 1019.57 1019.85 1020.10 1020.29 1020.41 1020.46 1020.43 1020.36 1020.25
1013.06 1013.19 1013.36 1013.57 1013.81 1014.07 1014.34 1014.59 1014.83 1015.04 1015.24 1015.44 1015.63 1015.82 1016.01 1016.20 1016.35 1016.47 1016.55 1016.57 1016.56 1016.53 1016.50 1016.48 1016.51 1016.60 1016.74 1016.92 1017.15 1017.38 1017.62 1017.83 1018.02 1018.18 1018.34 1018.49 1018.67 1018.88 1019.13 1019.42 1019.74 1020.06 1020.36 1020.61 1020.78 1020.88 1020.89 1020.85 1020.76
1013.24 1013.45 1013.74 1014.11 1014.55 1015.01 1015.46 1015.88 1016.23 1016.52 1016.74 1016.90 1017.04 1017.16 1017.27 1017.38 1017.48 1017.56 1017.60 1017.59 1017.54 1017.46 1017.36 1017.27 1017.22 1017.23 1017.29 1017.42 1017.59 1017.79 1018.00 1018.19 1018.34 1018.47 1018.59 1018.70 1018.83 1019.01 1019.24 1019.53 1019.87 1020.23 1020.57 1020.88 1021.11 1021.26 1021.32 1021.31 1021.26
1013.32 1013.59 1014.00 1014.52 1015.15 1015.82 1016.49 1017.10 1017.62 1018.02 1018.30 1018.49 1018.60 1018.67 1018.72 1018.77 1018.81 1018.83 1018.82 1018.78 1018.68 1018.55 1018.39 1018.23 1018.10 1018.02 1018.00 1018.06 1018.17 1018.31 1018.47 1018.61 1018.72 1018.80 1018.86 1018.92 1019.00 1019.14 1019.34 1019.62 1019.96 1020.33 1020.72 1021.07 1021.36 1021.57 1021.68 1021.72 1021.70
1013.33 1013.64 1014.13 1014.79 1015.59 1016.47 1017.36 1018.19 1018.90 1019.46 1019.85 1020.09 1020.22 1020.27 1020.27 1020.26 1020.24 1020.21 1020.15 1020.06 1019.92 1019.73 1019.52 1019.29 1019.09 1018.93 1018.84 1018.81 1018.84 1018.91 1019.00 1019.08 1019.14 1019.16 1019.16 1019.16 1019.19 1019.27 1019.43 1019.68 1020.00 1020.38 1020.79 1021.18 1021.52 1021.78 1021.95 1022.04 1022.06
1013.34 1013.65 1014.19 1014.95 1015.90 1016.97 1018.07 1019.12 1020.04 1020.77 1021.30 1021.63 1021.80 1021.85 1021.83 1021.76 1021.68 1021.59 1021.48 1021.33 1021.15 1020.92 1020.67 1020.39 1020.12 1019.90 1019.72 1019.62 1019.57 1019.56 1019.58 1019.60 1019.58 1019.55 1019.49 1019.43 1019.40 1019.42 1019.53 1019.74 1020.03 1020.40 1020.80 1021.21 1021.58 1021.89 1022.11 1022.24 1022.30
1013.45 1013.73 1014.27 1015.09 1016.14 1017.36 1018.65 1019.90 1021.02 1021.94 1022.61 1023.05 1023.27 1023.33 1023.28 1023.17 1023.03 1022.87 1022.70 1022.51 1022.29 1022.04 1021.75 1021.44 1021.14 1020.86 1020.62 1020.45 1020.32 1020.24 1020.19 1020.13 1020.06 1019.96 1019.85 1019.74 1019.65 1019.63 1019.68 1019.83 1020.08 1020.41 1020.79 1021.19 1021.56 1021.89 1022.14 1022.31 1022.41
1013.76 1013.96 1014.48 1015.31 1016.42 1017.74 1019.17 1020.58 1021.87 1022.94 1023.75 1024.28 1024.57 1024.64 1024.57 1024.41 1024.20 1023.99 1023.76 1023.54 1023.29 1023.02 1022.72 1022.41 1022.08 1021.78 1021.50 1021.27 1021.08 1020.94 1020.81 1020.70 1020.57 1020.42 1020.27 1020.11 1019.98 1019.90 1019.89 1019.98 1020.16 1020.43 1020.76 1021.12 1021.47 1021.79 1022.04 1022.24 1022.36
1014.30 1014.42 1014.88 1015.68 1016.80 1018.17 1019.69 1021.21 1022.63 1023.82 1024.73 1025.34 1025.67 1025.75 1025.65 1025.44 1025.18 1024.91 1024.64 1024.38 1024.12 1023.85 1023.57 1023.27 1022.95 1022.64 1022.34 1022.07 1021.84 1021.64 1021.46 1021.29 1021.11 1020.93 1020.73 1020.54 1020.37 1020.24 1020.17 1020.19 1020.30 1020.48 1020.73 1021.02 1021.32 1021.59 1021.83 1022.02 1022.16
1015.08 1015.12 1015.50 1016.24 1017.34 1018.71 1020.25 1021.84 1023.32 1024.59 1025.57 1026.23 1026.58 1026.66 1026.53 1026.28 1025.97 1025.64 1025.34 1025.06 1024.80 1024.56 1024.30 1024.03 1023.74 1023.44 1023.14 1022.85 1022.58 1022.33 1022.11 1021.89 1021.68 1021.46 1021.24 1021.01 1020.81 1020.63 1020.51 1020.45 1020.46 1020.55 1020.70 1020.89 1021.10 1021.32 1021.51 1021.68 1021.82
1016.05 1016.01 1016.31 1016.99 1018.03 1019.37 1020.90 1022.49 1023.99 1025.29 1026.30 1026.98 1027.33 1027.40 1027.25 1026.96 1026.60 1026.24 1025.92 1025.63 1025.39 1025.16 1024.95 1024.72 1024.46 1024.18 1023.89 1023.59 1023.29 1023.01 1022.74 1022.48 1022.23 1021.98 1021.73 1021.48 1021.24 1021.02 1020.84 1020.70 1020.62 1020.60 1020.63 1020.72 1020.83 1020.96 1021.10 1021.23 1021.35
1017.11 1017.03 1017.27 1017.88 1018.86 1020.14 1021.63 1023.18 1024.67 1025.96 1026.96 1027.64 1027.98 1028.03 1027.86 1027.54 1027.15 1026.77 1026.42 1026.14 1025.91 1025.72 1025.54 1025.35 1025.13 1024.88 1024.59 1024.27 1023.95 1023.63 1023.32 1023.02 1022.73 1022.45 1022.17 1021.90 1021.63 1021.36 1021.12 1020.91 1020.73 1020.61 1020.53 1020.50 1020.52 1020.56 1020.63 1020.71 1020.81
1018.19 1018.08 1018.30 1018.86 1019.79 1021.01 1022.43 1023.93 1025.37 1026.62 1027.59 1028.24 1028.57 1028.60 1028.41 1028.07 1027.66 1027.26 1026.91 1026.63 1026.42 1026.25 1026.10 1025.93 1025.74 1025.49 1025.20 1024.88 1024.52 1024.16 1023.81 1023.47 1023.14 1022.82 1022.51 1022.21 1021.91 1021.60 1021.31 1021.03 1020.78 1020.56 1020.38 1020.25 1020.17 1020.13 1020.13 1020.17 1020.24
1019.21 1019.13 1019.35 1019.90 1020.79 1021.95 1023.30 1024.73 1026.10 1027.29 1028.22 1028.83 1029.13 1029.14 1028.94 1028.59 1028.17 1027.77 1027.41 1027.13 1026.92 1026.75 1026.61 1026.46 1026.27 1026.02 1025.72 1025.37 1024.98 1024.58 1024.18 1023.79 1023.42 1023.07 1022.73 1022.40 1022.06 1021.73 1021.39 1021.06 1020.74 1020.45 1020.19 1019.98 1019.81 1019.70 1019.65 1019.64 1019.69
1020.16 1020.14 1020.40 1020.96 1021.83 1022.95 1024.24 1025.58 1026.87 1027.98 1028.85 1029.41 1029.68 1029.68 1029.46 1029.11 1028.69 1028.28 1027.92 1027.62 1027.40 1027.22 1027.07 1026.90 1026.70 1026.43 1026.11 1025.73 1025.31 1024.87 1024.42 1023.99 1023.58 1023.20 1022.83 1022.47 1022.11 1021.74 1021.38 1021.01 1020.64 1020.30 1019.98 1019.70 1019.48 1019.31 1019.20 1019.16 1019.18
1021.04 1021.12 1021.45 1022.05 1022.91 1023.99 1025.21 1026.46 1027.65 1028.68 1029.46 1029.97 1030.20 1030.18 1029.96 1029.60 1029.19 1028.77 1028.40 1028.08 1027.84 1027.63 1027.45 1027.25 1027.02 1026.72 1026.37 1025.96 1025.51 1025.04 1024.56 1024.10 1023.66 1023.24 1022.84 1022.46 1022.08 1021.69 1021.30 1020.91 1020.51 1020.13 1019.77 1019.45 1019.18 1018.96 1018.81 1018.73 1018.72
Thickness
5787 5789 5789 5781 5768 5756 5745 5748 5755 5754 5755 5760 5763 5761 5756 5752 5748 5741 5752 5761 5763 5763 5762 5760 5760 5761 5761 5762 5763 5764 5765 5766 5766 5767 5767 5767 5768 5768 5767 5767 5767 5767 5767 5766 5766 5766 5766 5766 5766
5789 5788 5783 5775 5760 5743 5738 5748 5749 5752 5756 5760 5760 5759 5755 5749 5752 5751 5754 5757 5760 5761 5760 5759 5757 5758 5758 5759 5760 5761 5762 5763 5763 5763 5764 5764 5764 5764 5764 5764 5764 5764 5764 5763 5763 5763 5763 5763 5763
5787 5786 5775 5765 5753 5744 5739 5747 5749 5752 5758 5757 5753 5755 5751 5744 5749 5750 5754 5756 5758 5758 5757 5755 5754 5754 5755 5756 5757 5757 5758 5759 5759 5760 5760 5760 5760 5760 5761 5760 5761 5760 5760 5760 5760 5759 5760 5759 5759
5784 5777 5770 5756 5742 5745 5747 5749 5751 5751 5752 5755 5753 5746 5746 5747 5749 5751 5753 5755 5756 5755 5754 5752 5750 5750 5751 5752 5753 5753 5754 5754 5755 5755 5755 5756 5756 5756 5756 5757 5757 5756 5756 5756 5756 5756 5756 5755 5755
5781 5769 5754 5743 5740 5744 5749 5752 5753 5749 5747 5749 5750 5740 5737 5745 5749 5750 5750 5751 5752 5752 5751 5749 5746 5746 5747 5747 5748 5749 5749 5749 5750 5751 5751 5751 5751 5752 5752 5752 5752 5752 5752 5752 5752 5751 5751 5751 5751
5768 5763 5746 5736 5737 5742 5747 5751 5750 5746 5744 5746 5745 5738 5734 5742 5744 5745 5747 5747 5748 5747 5746 5745 5742 5742 5742 5743 5743 5744 5744 5745 5745 5745 5746 5746 5746 5747 5747 5747 5747 5747 5747 5747 5747 5747 5747 5747 5747
5760 5752 5741 5738 5734 5736 5741 5749 5746 5743 5740 5741 5744 5735 5733 5737 5740 5742 5743 5743 5743 5743 5743 5742 5742 5740 5739 5738 5738 5739 5739 5740 5740 5740 5740 5741 5741 5742 5742 5742 5742 5743 5743 5743 5742 5742 5742 5742 5742
5764 5752 5739 5737 5733 5732 5741 5744 5745 5743 5738 5744 5744 5733 5728 5734 5739 5739 5739 5739 5738 5739 5738 5738 5739 5738 5738 5737 5734 5734 5735 5735 5735 5735 5735 5736 5737 5738 5738 5738 5737 5738 5738 5738 5737 5737 5737 5737 5737
5763 5745 5733 5734 5733 5733 5740 5738 5740 5744 5739 5737 5738 5737 5736 5736 5735 5734 5733 5733 5732 5733 5734 5735 5735 5734 5734 5733 5731 5731 5731 5730 5732 5732 5731 5733 5736 5736 5735 5733 5732 5733 5733 5733 5733 5732 5733 5733 5733
5752 5736 5732 5739 5742 5738 5738 5736 5736 5736 5731 5729 5730 5732 5733 5732 5730 5728 5728 5727 5727 5728 5729 5731 5731 5730 5730 5729 5728 5729 5729 5728 5730 5730 5730 5731 5732 5731 5730 5727 5727 5728 5728 5728 5728 5728 5729 5731 5732
5745 5734 5735 5737 5741 5740 5735 5733 5736 5732 5724 5727 5726 5725 5726 5726 5725 5725 5725 5725 5725 5726 5725 5726 5726 5726 5726 5725 5724 5724 5724 5724 5725 5725 5726 5726 5726 5727 5726 5726 5726 5725 5725 5726 5725 5727 5727 5728 5727
5739 5735 5736 5735 5736 5735 5733 5731 5729 5728 5725 5731 5730 5727 5724 5722 5721 5721 5721 5722 5722 5722 5721 5722 5722 5722 5722 5722 5720 5720 5720 5720 5720 5719 5720 5721 5721 5722 5722 5722 5721 5721 5721 5721 5721 5721 5722 5722 5722
5733 5729 5731 5732 5731 5731 5730 5726 5723 5721 5726 5729 5727 5724 5720 5719 5719 5720 5721 5719 5719 5718 5717 5717 5717 5718 5718 5717 5716 5716 5715 5715 5715 5713 5714 5715 5716 5717 5717 5717 5715 5716 5715 5716 5715 5716 5716 5716 5715
5731 5728 5727 5727 5727 5726 5722 5720 5719 5716 5722 5721 5720 5718 5717 5716 5715 5716 5715 5715 5715 5715 5714 5714 5714 5713 5713 5713 5712 5711 5710 5708 5709 5708 5708 5709 5710 5710 5711 5711 5710 5710 5710 5710 5710 5710 5710 5709 5708
5731 5723 5720 5720 5722 5721 5720 5711 5713 5717 5718 5715 5714 5714 5713 5712 5712 5712 5712 5711 5712 5711 5711 5710 5709 5709 5709 5708 5707 5706 5705 5705 5703 5702 5703 5704 5703 5704 5704 5705 5704 5704 5704 5705 5704 5704 5704 5703 5702
5724 5717 5709 5713 5717 5717 5712 5701 5710 5716 5715 5711 5711 5710 5708 5708 5709 5710 5710 5710 5709 5708 5707 5706 5705 5704 5704 5703 5701 5700 5700 5699 5698 5697 5698 5699 5699 5699 5698 5698 5698 5698 5698 5698 5697 5697 5697 5696 5695
5714 5708 5706 5708 5714 5713 5708 5700 5708 5713 5711 5707 5707 5707 5706 5705 5705 5706 5707 5706 5706 5705 5704 5702 5701 5700 5698 5697 5695 5694 5694 5693 5693 5692 5692 5693 5693 5693 5693 5692 5692 5692 5692 5692 5691 5690 5690 5689 5687
5705 5707 5705 5705 5710 5708 5702 5700 5705 5708 5707 5706 5706 5705 5704 5703 5702 5703 5703 5702 5702 5701 5701 5699 5697 5695 5693 5691 5691 5689 5688 5688 5687 5687 5686 5686 5686 5687 5687 5686 5686 5686 5685 5685 5684 5683 5682 5681 5681
5711 5707 5704 5704 5708 5703 5699 5699 5702 5705 5703 5703 5703 5703 5702 5702 5703 5702 5700 5699 5698 5697 5696 5694 5692 5690 5688 5687 5685 5684 5682 5682 5682 5681 5681 5680 5680 5680 5680 5680 5680 5679 5679 5678 5678 5677 5675 5675 5676
5706 5702 5702 5702 5704 5701 5698 5697 5702 5702 5702 5702 5702 5702 5701 5700 5699 5698 5696 5695 5694 5693 5691 5689 5688 5686 5684 5682 5681 5679 5677 5676 5675 5674 5674 5674 5674 5674 5674 5675 5674 5673 5671 5671 5671 5669 5669 5668 5669
5701 5700 5700 5697 5697 5699 5696 5693 5698 5701 5701 5701 5700 5701 5701 5699 5697 5695 5692 5691 5690 5688 5687 5686 5685 5683 5680 5677 5676 5673 5672 5671 5670 5669 5669 5668 5668 5668 5668 5668 5667 5666 5667 5665 5664 5664 5662 5662 5662
5696 5702 5700 5696 5694 5692 5693 5685 5695 5698 5697 5697 5697 5697 5697 5696 5695 5692 5690 5687 5686 5684 5684 5683 5681 5679 5676 5674 5671 5670 5667 5665 5665 5664 5663 5663 5662 5662 5662 5662 5661 5661 5660 5659 5659 5658 5657 5656 5656
5697 5700 5698 5696 5695 5692 5692 5687 5693 5697 5692 5694 5695 5695 5694 5693 5692 5689 5687 5685 5683 5681 5680 5679 5677 5674 5672 5670 5667 5665 5663 5662 5660 5659 5658 5658 5657 5657 5656 5656 5655 5655 5653 5653 5652 5651 5651 5651 5650
5698 5696 5694 5695 5694 5681 5687 5685 5685 5693 5692 5693 5693 5692 5690 5690 5688 5686 5684 5682 5679 5677 5675 5673 5671 5668 5666 5665 5663 5661 5659 5656 5655 5653 5652 5652 5652 5651 5651 5650 5650 5648 5647 5646 5645 5645 5644 5644 5643
5696 5690 5681 5679 5677 5679 5688 5682 5685 5693 5693 5691 5689 5688 5688 5687 5684 5682 5680 5677 5674 5672 5670 5668 5666 5663 5661 5660 5658 5657 5654 5652 5650 5649 5647 5647 5646 5645 5645 5644 5643 5642 5640 5639 5639 5638 5638 5637 5636
5691 5690 5678 5670 5672 5678 5681 5678 5687 5690 5689 5689 5688 5686 5684 5682 5680 5677 5675 5673 5670 5668 5665 5664 5661 5658 5656 5654 5653 5651 5648 5646 5645 5643 5643 5641 5641 5640 5639 5638 5637 5635 5634 5633 5632 5632 5630 5631 5630
5686 5686 5688 5682 5678 5673 5678 5681 5683 5686 5685 5684 5683 5681 5679 5678 5676 5674 5672 5669 5665 5663 5661 5659 5656 5653 5652 5650 5647 5645 5642 5640 5639 5638 5637 5636 5635 5634 5633 5632 5630 5628 5627 5627 5626 5625 5625 5624 5624
5687 5686 5682 5676 5667 5667 5672 5676 5678 5679 5681 5680 5679 5677 5676 5674 5672 5669 5667 5664 5661 5658 5656 5654 5651 5648 5646 5644 5642 5639 5636 5634 5633 5632 5630 5630 5629 5627 5626 5625 5624 5623 5622 5621 5619 5619 5618 5618 5616
5677 5676 5677 5678 5676 5667 5663 5672 5683 5681 5680 5677 5676 5674 5672 5669 5667 5665 5662 5659 5656 5653 5650 5648 5646 5643 5640 5638 5636 5633 5631 5629 5627 5626 5625 5624 5623 5621 5620 5619 5618 5617 5616 5615 5614 5613 5612 5612 5611
5679 5676 5674 5669 5670 5670 5666 5668 5681 5678 5676 5674 5672 5670 5667 5665 5662 5660 5657 5653 5649 5646 5644 5642 5640 5637 5634 5632 5629 5627 5625 5622 5621 5619 5619 5617 5617 5615 5614 5614 5612 5611 5610 5609 5609 5607 5606 5606 5605